Reflectivity
-20 -20 -20 -20 -20 24 -20 -20 -20 -20 -20 -20 -20 -20 -20 -20 -20 -20 -20 -20 -20 -20 -20 -20 -20 -20 -20 -20 -20 -20 -20 -20 -20
-20 9 -20 -20 22 4 -2 -20 -20 -20 -20 -20 -20 -20 -20 -20 -20 -20 -20 -20 -20 -20 -20 -20 -20 -20 -20 -20 -20 -20 -20 -20 -20
-20 -20 -10 -20 26 27 15 -20 -20 -20 -20 -20 -20 -20 -20 -20 -20 -20 -20 -20 -20 -20 -20 -20 -20 -20 -20 -20 -20 -20 -20 -20 -20
-20 -20 1 7 -20 -20 23 20 -20 -20 -20 -20 -20 -20 -20 -20 -20 -20 -20 -20 -20 -20 -20 -20 -20 -20 -20 -20 -20 -20 -20 -20 -20
-20 -20 -20 -20 24 23 21 27 -20 -20 -20 -20 -20 -20 -20 -20 -20 -20 -20 -20 -20 -20 -20 -20 -20 -20 -20 -20 -20 -20 -20 -20 -20
-20 -20 -20 -20 -0 -5 25 25 -20 -20 -20 -20 -20 -20 -20 -20 -20 -20 -20 -20 -20 -20 -20 -20 -20 -20 -20 -20 -20 -20 -20 -20 -20
-20 -20 -20 -20 4 -2 21 25 21 -20 -20 -20 -20 -20 -20 -20 -20 -20 -20 -20 -20 -9 -20 -20 -20 -20 -20 -20 -20 -20 -20 -20 -20
-20 -20 -20 9 -20 24 -14 -12 -11 -20 -20 -20 -20 -20 -20 -20 -20 -20 -20 -20 -20 -20 -20 -20 -20 -20 -20 -20 -20 -20 -20 -20 -20
-8 5 -20 -16 -5 13 19 16 -20 -20 -20 -20 -20 -20 -20 -20 -20 -20 -20 -20 -20 -20 -20 -20 -20 -20 -20 -20 -20 -20 -20 -20 -20
-8 -20 -20 15 -7 18 9 -2 19 -20 -20 -20 -20 -20 -20 -20 -20 -20 -20 -20 -20 -20 -5 3 -20 -20 -20 -20 -20 -20 -20 -20 -20
4 16 16 14 21 21 22 5 17 -1 -20 -7 -20 -20 -20 -20 -20 -20 -20 -20 -20 -20 -20 -13 9 -20 -20 -20 -20 -20 -20 -20 -20
10 22 19 18 23 24 25 26 23 28 12 5 10 -19 12 -20 -20 -20 -20 -20 -20 -20 -20 -20 -20 -20 -16 -18 -18 -20 -20 -20 -20
-20 1 23 28 -8 10 -20 -17 19 27 7 27 23 25 18 15 -17 -20 -20 -20 -20 -20 -20 -20 -20 -20 -20 -18 3 -18 -20 -20 -20
12 -4 32 27 5 28 19 26 10 19 21 -18 -9 -12 -20 -20 -5 -12 -14 -4 -20 -20 -20 -20 -20 -20 -20 -20 -20 -6 -20 -20 -20
8 6 30 34 14 9 -5 25 18 13 20 19 15 7 -20 -20 -12 -3 -18 -19 -20 -20 -20 -20 -20 -20 -20 -20 -20 -20 18 8 -20
-20 -20 5 33 29 1 -12 9 14 12 24 13 12 22 9 -13 -20 -11 10 -20 -20 -20 -20 -20 -20 -20 -16 -20 -20 -20 -20 -20 -20
-20 -20 -20 4 14 27 2 -19 9 -12 5 9 20 12 -9 -20 -20 -20 -19 -20 -1 7 -19 -20 -20 3 8 6 11 -16 -20 -20 8
2 -20 -20 -20 23 8 11 16 4 9 13 13 1 -1 -18 -20 -20 -20 -20 -20 -20 -16 -12 -20 -20 -20 -20 -10 14 -1 -20 -20 -20
22 3 5 7 -19 13 12 9 2 8 25 21 18 -14 -12 -20 -20 -20 -20 -20 -20 -20 -20 -20 -20 -20 -20 -20 -18 -5 -16 3 -3
25 15 25 20 29 24 15 4 8 9 -15 25 20 1 -5 18 -19 12 -20 -20 -20 -19 -6 -12 -10 -20 -20 -20 -20 -20 -20 -20 -20
Wind_Speed
10 9 9 7 5 10 13 12 11 9 8 8 6 4 4 6 3 4 3 7 7 6 7 8 8 8 8 8 7 8 8 8 9
9 9 8 7 8 13 14 13 12 11 10 8 6 5 5 8 4 5 4 9 6 6 6 6 7 7 7 7 7 7 7 7 8
10 9 9 9 10 13 15 14 13 12 11 10 8 6 6 6 3 3 4 9 8 7 5 5 5 5 6 6 6 6 6 7 7
9 10 9 10 11 14 14 14 13 11 10 10 9 7 8 9 3 4 4 6 8 7 6 5 4 4 4 4 5 4 4 5 6
8 8 9 10 13 13 14 14 12 11 8 9 9 7 7 9 3 4 5 10 7 7 6 6 5 5 4 4 3 3 4 4 5
12 11 8 12 14 15 14 14 12 9 7 7 9 8 6 9 5 4 12 8 7 6 6 5 5 5 5 4 4 3 3 3 3
6 7 12 11 13 13 13 13 11 9 8 7 7 6 9 6 5 3 12 10 9 7 6 6 5 5 5 5 4 4 3 3 3
6 5 6 7 9 7 9 9 8 12 9 8 9 9 10 5 4 6 11 10 10 11 9 8 7 7 7 6 6 5 5 5 4
5 6 7 7 6 9 8 6 10 12 13 13 11 12 8 5 4 6 13 11 11 11 12 12 10 10 9 9 9 8 8 8 8
5 7 5 5 7 8 7 8 8 10 11 10 11 11 10 9 5 3 12 12 12 12 12 13 13 13 13 12 12 12 11 11 11
3 5 4 5 6 7 8 9 7 4 6 9 11 12 9 10 9 5 7 12 12 13 14 15 15 16 15 15 14 14 14 14 14
4 5 6 6 6 8 6 6 4 4 2 6 8 8 12 9 10 8 6 8 11 14 17 16 16 16 17 17 17 16 15 15 15
4 3 5 6 4 5 6 6 3 6 6 5 4 4 5 10 11 8 7 7 7 11 16 17 17 17 17 17 17 16 14 13 15
3 3 6 7 4 5 4 6 7 7 8 8 10 9 8 8 7 10 10 10 8 6 12 17 17 16 17 18 18 18 14 12 11
6 4 1 10 6 5 4 9 7 7 6 5 7 7 7 7 8 9 9 11 11 10 10 7 8 16 18 19 20 19 16 13 14
10 5 6 8 7 8 9 7 8 6 6 4 6 8 11 13 9 7 8 9 10 10 10 8 7 7 19 20 20 21 21 17 15
10 8 6 7 6 9 10 6 6 6 5 3 4 4 6 10 12 10 11 11 7 6 9 10 11 10 7 11 21 21 23 22 19
8 10 8 8 7 6 8 7 9 8 9 12 7 3 6 6 8 15 13 14 11 11 12 13 13 11 10 7 12 20 22 21 22
5 7 7 7 6 6 7 8 9 9 9 6 9 11 3 3 5 6 8 13 13 15 12 12 13 11 8 12 13 16 18 20 21
2 4 7 8 7 8 9 9 8 8 8 8 6 7 8 8 6 8 7 3 7 6 10 9 8 9 11 8 9 12 15 20 22
Wind_Direction
205 210 208 223 191 173 153 145 148 151 159 159 158 156 181 224 190 100 108 69 107 102 93 92 93 94 94 94 92 86 83 78 72
214 212 207 210 199 186 157 159 163 164 167 169 167 175 241 259 156 137 167 105 124 117 110 107 105 102 99 98 95 88 85 81 78
225 222 214 208 215 193 167 170 174 178 177 178 171 175 240 250 179 157 147 129 142 133 122 116 113 111 107 99 93 89 88 87 79
237 233 224 217 206 194 182 173 179 189 195 197 158 176 227 284 192 205 148 156 157 148 144 142 138 128 115 108 103 99 88 83 83
238 236 226 218 203 197 192 174 181 186 181 162 159 182 243 256 162 240 98 153 174 165 162 163 162 157 146 141 133 122 110 96 87
220 216 222 203 209 199 192 179 179 181 173 177 173 184 223 228 205 212 134 157 192 186 182 186 187 180 173 175 169 161 150 134 117
272 216 185 200 203 202 192 190 174 182 198 195 189 215 235 219 212 186 144 167 202 196 203 209 212 211 205 199 200 196 186 184 164
238 234 194 212 205 206 199 187 199 208 227 206 199 216 231 222 216 142 152 184 209 200 202 215 223 225 223 223 221 221 220 217 215
241 223 206 194 206 207 205 199 213 214 221 228 216 210 221 225 218 167 159 190 219 228 207 207 218 227 231 232 229 227 229 229 225
236 243 258 208 207 210 207 210 223 218 216 230 229 233 220 228 232 218 169 183 211 233 243 223 218 220 227 231 231 231 233 237 237
262 270 261 229 216 221 214 212 224 236 226 223 238 241 238 237 230 229 184 188 201 219 235 248 240 229 229 230 233 235 233 235 237
222 238 239 223 223 238 238 236 212 188 271 269 250 236 238 233 238 245 231 188 204 212 226 234 243 248 244 237 234 235 233 236 240
291 249 240 233 223 219 235 218 216 209 199 210 277 254 245 245 242 233 236 228 226 204 220 221 231 241 246 250 251 240 237 240 242
173 313 295 288 272 253 247 233 228 220 215 213 220 230 229 237 254 237 231 234 228 233 199 211 221 226 235 244 249 252 248 244 230
216 221 215 297 290 277 271 253 242 240 230 225 236 238 242 229 231 257 251 233 225 218 232 204 215 219 225 233 242 249 250 238 227
212 215 199 217 248 249 251 261 248 234 232 237 231 236 225 240 244 252 249 252 238 224 226 216 222 207 215 222 231 238 245 244 236
230 235 238 253 219 234 246 241 255 255 202 225 231 232 229 236 237 234 243 244 248 238 245 231 219 209 202 205 220 226 235 241 243
226 230 232 237 240 227 235 218 224 246 229 210 229 197 240 263 220 221 225 227 229 233 235 232 229 216 214 204 202 217 225 229 240
202 229 241 243 238 233 244 235 228 239 246 230 225 246 264 273 267 262 222 230 226 227 223 225 226 223 221 214 211 201 210 219 233
280 276 246 256 260 254 248 253 245 245 246 244 226 237 248 243 244 261 259 269 256 252 235 218 213 218 217 226 222 196 195 211 224